Home   Weather   Podgorica   Past weeks

Flag for Montenegro Past Weather in Podgorica, Montenegro — Yesterday and Last 2 Weeks

Now
50 °F

Mostly cloudy.


Feels Like: 49 °F
Forecast: 43 / 61 °F
Wind: 3 mph from Northeast

Location: Podgorica Titograd

Current Time: Feb 26, 2017 at 10:27:43 pm

Latest Report: Feb 26, 2017 at 10:00 pm


Visibility: N/A

Pressure: 30.12 "Hg

Humidity: 82%

Dew Point: 45 °F

Location of PodgoricaLocation

Past Weather in Podgorica — Graph

°F

Podgorica Temperature Yesterday

Maximum temperature yesterday: 54 °F (at 12:00 am)
Minimum temperature yesterday: 45 °F (at 8:30 am)
Average temperature yesterday: 48 °F

High & Low Weather Summary for the Past Weeks

 TemperatureHumidityPressure
High64 °F (Feb 16, 2:00 pm)100% (Feb 24, 11:00 pm)30.54 "Hg (Feb 24, 11:00 pm)
Low30 °F (Feb 15, 4:30 am)17% (Feb 15, 3:30 pm)29.89 "Hg (Feb 25, 2:30 am)
Average45 °F67%30.23 "Hg
* Reported Feb 11 9:00 pm — Feb 26 9:00 pm, Podgorica, Weather by CustomWeather, © 2017

Note: Actual official high and low records may vary slightly from our data, if they occured in-between our weather recording intervals... More about our weather records

Advertising

Podgorica Weather History for the Previous 24 Hours

Scroll right to see more
 ConditionsComfort  
Time TempWeatherWind HumidityBarometerVisibility
9:00 pm
Sun, Feb 26
50 °FPassing clouds.1 mph82%30.12 "HgN/A
8:30 pm50 °FPassing clouds.1 mph82%30.12 "HgN/A
8:00 pm50 °FPassing clouds.3 mph88%30.12 "HgN/A
7:30 pm50 °FPassing clouds.3 mph88%30.12 "HgN/A
7:00 pm52 °FPassing clouds.1 mph82%30.12 "HgN/A
6:30 pm52 °FPassing clouds.1 mph82%30.12 "HgN/A
6:00 pm54 °FPassing clouds.2 mph77%30.09 "HgN/A
5:30 pm55 °FPassing clouds.No wind67%30.09 "HgN/A
5:00 pm57 °FPartly sunny.1 mph63%30.09 "HgN/A
4:30 pm57 °FPartly sunny.1 mph63%30.09 "HgN/A
4:00 pm57 °FPartly sunny.1 mph63%30.09 "HgN/A
3:30 pm57 °FPartly sunny.No wind59%30.09 "HgN/A
3:00 pm57 °FPartly sunny.1 mph59%30.09 "HgN/A
2:30 pm55 °FPartly sunny.1 mph63%30.09 "HgN/A
2:00 pm55 °FPartly sunny.1 mph63%30.12 "HgN/A
1:30 pm54 °FPartly sunny.1 mph67%30.12 "HgN/A
1:00 pm54 °FPartly sunny.2 mph67%30.12 "HgN/A
12:30 pm54 °FPartly sunny.2 mph67%30.15 "HgN/A
12:00 pm52 °FPartly sunny.3 mph72%30.15 "HgN/A
11:30 am52 °FPartly sunny.2 mph67%30.15 "HgN/A
11:00 am52 °FPartly sunny.1 mph72%30.15 "HgN/A
10:30 am50 °FPartly sunny.1 mph76%30.15 "HgN/A
10:00 am48 °FPartly sunny.2 mph82%30.15 "HgN/A
9:30 am46 °FBroken clouds.2 mph82%30.15 "HgN/A
9:00 am46 °FPartly sunny.2 mph87%30.15 "HgN/A
8:30 am46 °FPartly sunny.2 mph87%30.15 "HgN/A
8:00 am45 °FPartly sunny.3 mph93%30.15 "Hg4 mi
7:30 am43 °FBroken clouds.2 mph93%30.15 "Hg4 mi
7:00 am41 °FFog.2 mph93%30.12 "Hg1 mi
6:30 am41 °FFog.2 mph93%30.12 "Hg1 mi
6:00 am39 °FFog.2 mph100%30.12 "Hg1 mi
5:30 am39 °FFog.1 mph100%30.12 "Hg1 mi
5:00 am41 °FLight rain. Fog.2 mph93%30.12 "Hg2 mi
4:30 am41 °FLight rain. Fog.1 mph93%30.12 "Hg2 mi
4:00 am43 °FLight rain. Fog.5 mph93%30.12 "Hg1 mi
3:30 am43 °FLight rain. Mostly cloudy.5 mph93%30.15 "Hg5 mi
3:00 am43 °FLight rain. Mostly cloudy.5 mph100%30.15 "Hg5 mi
2:30 am43 °FPartly cloudy.3 mph93%30.15 "HgN/A
2:00 am43 °FPartly cloudy.3 mph93%30.15 "HgN/A
1:30 am43 °FPartly cloudy.3 mph93%30.15 "HgN/A
1:00 am45 °FPartly cloudy.3 mph93%30.15 "HgN/A
12:30 am45 °FPartly cloudy.2 mph93%30.15 "HgN/A
12:00 am45 °FPartly cloudy.2 mph93%30.15 "HgN/A
11:30 pm
Sat, Feb 25
45 °FPartly cloudy.1 mph93%30.15 "HgN/A
11:00 pm45 °FPartly cloudy.1 mph93%30.15 "HgN/A
10:30 pm45 °FPartly cloudy.2 mph93%30.15 "HgN/A
10:00 pm45 °FPartly cloudy.5 mph93%30.15 "HgN/A
Weather by CustomWeather, © 2017

See weather overviewHow to use our weather pages